K0QJ Weather Reports


time (UTC)temp
F
wind
direction
speed
knots
gust
knots
rain 1hr
in
rain 24hr
in
rain mn
in
humidity
%
barometer
mb
20260906175144 98 338 0.9 0.9 0.00 0.00 0.00 48 1013.9
20260906174643 97 343 0.9 0.9 0.00 0.00 0.00 50 1013.7
20260906174137 97 283 1.7 2.6 0.00 0.00 0.00 49 1013.9
20260906173633 97 200 0.9 0.9 0.00 0.00 0.00 49 1014.2
20260906173128 96 338 0.9 0.9 0.00 0.00 0.00 52 1014.3
20260906172627 96 1 1.7 1.7 0.00 0.00 0.00 54 1014.1
20260906172123 96 13 0.9 0.9 0.00 0.00 0.00 54 1014.1
20260906171622 96 222 0.9 0.9 0.00 0.00 0.00 52 1014.3
20260906171119 96 323 0.0 0.9 0.00 0.00 0.00 52 1014.4
20260906170615 95 267 1.7 1.7 0.00 0.00 0.00 53 1014.3
20260906170114 95 23 0.0 0.9 0.00 0.00 0.00 56 1014.5
20260906165610 95 270 1.7 1.7 0.00 0.00 0.00 55 1014.5
20260906165106 95 26 2.6 4.3 0.00 0.00 0.00 54 1014.6
20260906164604 95 198 0.9 1.7 0.00 0.00 0.00 56 1014.7
20260906164100 95 0 0.0 0.0 0.00 0.00 0.00 57 1014.6
20260906163555 95 342 0.0 0.9 0.00 0.00 0.00 56 1014.6
20260906163051 95 217 0.0 1.7 0.00 0.00 0.00 56 1014.5
20260906162548 96 20 2.6 2.6 0.00 0.00 0.00 56 1014.8
20260906162043 95 348 0.9 0.9 0.00 0.00 0.00 57 1014.8
20260906161538 93 322 0.9 0.9 0.00 0.00 0.00 57 1014.5
20260906161037 93 18 0.9 1.7 0.00 0.00 0.00 57 1014.7
20260906160536 93 358 0.9 0.9 0.00 0.00 0.00 58 1014.6
20260906160035 93 356 0.0 0.9 0.00 0.00 0.00 60 1014.7
20260906155532 92 353 0.0 0.9 0.00 0.00 0.00 61 1014.8
20260906155029 92 352 0.9 0.9 0.00 0.00 0.00 62 1014.3
20260906154523 91 357 0.9 0.9 0.00 0.00 0.00 62 1014.7
20260906154022 91 217 1.7 1.7 0.00 0.00 0.00 62 1014.6
20260906153521 91 149 2.6 2.6 0.00 0.00 0.00 62 1014.7
20260906153017 90 110 0.9 0.9 0.00 0.00 0.00 63 1014.4
20260906152510 89 6 0.9 0.9 0.00 0.00 0.00 65 1014.4
20260906152005 88 16 1.7 2.6 0.00 0.00 0.00 65 1014.5
20260906151500 87 279 0.9 0.9 0.00 0.00 0.00 67 1014.6
20260906150956 87 306 0.0 0.9 0.00 0.00 0.00 68 1014.5
20260906150451 87 349 0.9 0.9 0.00 0.00 0.00 68 1014.5
20260906145950 86 355 0.0 0.0 0.00 0.00 0.00 69 1014.5
20260906145450 86 346 0.0 0.9 0.00 0.00 0.00 70 1014.5
20260906144944 85 348 0.9 0.9 0.00 0.00 0.00 70 1014.7
20260906144439 85 351 0.9 0.9 0.00 0.00 0.00 70 1014.7
20260906143935 85 345 0.9 0.9 0.00 0.00 0.00 70 1014.9
20260906143430 85 343 0.0 0.9 0.00 0.00 0.00 71 1014.8
20260906142926 85 345 0.0 0.0 0.00 0.00 0.00 71 1014.4
20260906142425 84 343 0.0 0.0 0.00 0.00 0.00 71 1014.6
20260906141920 84 25 0.0 0.9 0.00 0.00 0.00 72 1014.4
20260906141419 84 285 0.9 0.9 0.00 0.00 0.00 72 1014.4
20260906140914 84 14 0.9 0.9 0.00 0.00 0.00 73 1014.4
20260906140408 83 183 1.7 4.3 0.00 0.00 0.00 72 1014.4
20260906135907 83 338 0.0 0.0 0.00 0.00 0.00 73 1014.5
20260906135401 82 347 0.0 0.0 0.00 0.00 0.00 74 1014.4
20260906134856 82 9 0.0 0.9 0.00 0.00 0.00 74 1014.7
20260906134351 82 345 0.0 0.9 0.00 0.00 0.00 74 1014.2
20260906133846 81 353 0.9 0.9 0.00 0.00 0.00 74 1014.5
20260906133342 81 352 0.0 0.9 0.00 0.00 0.00 75 1014.5
20260906132837 81 357 0.0 0.9 0.00 0.00 0.00 75 1014.4
20260906132332 81 344 0.0 0.9 0.00 0.00 0.00 75 1014.2
20260906131828 80 1 0.0 0.9 0.00 0.00 0.00 75 1014.1
20260906131323 80 354 0.9 0.9 0.00 0.00 0.00 75 1014.1
20260906130819 80 358 0.0 0.0 0.00 0.00 0.00 76 1014.0
20260906130313 80 334 0.0 0.0 0.00 0.00 0.00 76 1014.1
20260906125812 79 348 0.0 0.0 0.00 0.00 0.00 76 1014.0
20260906125309 79 19 0.9 1.7 0.00 0.00 0.00 77 1014.0
20260906124804 79 352 0.0 0.0 0.00 0.00 0.00 77 1014.0
20260906124301 79 356 0.0 0.0 0.00 0.00 0.00 77 1013.7
20260906123759 79 350 0.0 0.0 0.00 0.00 0.00 77 1013.5
20260906123254 78 350 0.0 0.0 0.00 0.00 0.00 77 1013.4
20260906122753 78 352 0.0 0.0 0.00 0.00 0.00 78 1013.6
20260906122249 78 339 0.0 0.9 0.00 0.00 0.00 78 1013.3
20260906121745 78 347 0.0 0.0 0.00 0.00 0.00 78 1013.4
20260906121241 78 343 0.0 0.0 0.00 0.00 0.00 78 1013.5
20260906120737 78 326 0.0 0.9 0.00 0.00 0.00 78 1013.5
20260906120234 78 339 0.0 0.0 0.00 0.00 0.00 78 1013.3
20260906115729 78 349 0.0 0.0 0.00 0.00 0.00 77 1013.2
20260906115224 78 347 0.0 0.0 0.00 0.00 0.00 77 1013.4
20260906114723 79 21 0.9 0.9 0.00 0.00 0.00 77 1013.4
20260906114218 79 23 0.9 0.9 0.00 0.00 0.00 76 1013.5
20260906113713 79 350 0.0 0.0 0.00 0.00 0.00 76 1013.4
20260906113212 79 346 0.0 0.0 0.00 0.00 0.00 76 1013.5
20260906112707 79 348 0.0 0.0 0.00 0.00 0.00 75 1013.4
20260906112204 79 352 0.0 0.0 0.00 0.00 0.00 75 1013.1
20260906111703 80 331 0.0 0.0 0.00 0.00 0.00 74 1013.1
20260906111158 80 344 0.9 0.9 0.00 0.00 0.00 74 1013.3
20260906110653 80 1 0.0 0.0 0.00 0.00 0.00 74 1013.1
20260906110148 80 328 0.0 0.9 0.00 0.00 0.00 74 1013.3
20260906105642 80 353 0.0 0.0 0.00 0.00 0.00 73 1013.1
20260906105139 80 339 0.0 0.0 0.00 0.00 0.00 74 1013.2
20260906104638 80 350 0.0 0.0 0.00 0.00 0.00 73 1013.0
20260906104137 80 347 0.0 0.0 0.00 0.00 0.00 73 1013.2
20260906103636 80 347 0.0 0.0 0.00 0.00 0.00 73 1013.0
20260906103130 80 352 0.0 0.0 0.00 0.00 0.00 73 1013.1
20260906102625 80 355 0.0 0.0 0.00 0.00 0.00 73 1013.2
20260906102114 80 353 0.0 0.0 0.00 0.00 0.00 73 1013.0
20260906101608 80 353 0.0 0.0 0.00 0.00 0.00 73 1013.1
20260906101103 80 349 0.0 0.0 0.00 0.00 0.00 73 1013.3
20260906100558 80 351 0.0 0.0 0.00 0.00 0.00 73 1013.0
20260906100053 80 350 0.0 0.0 0.00 0.00 0.00 73 1013.2
20260906095553 80 353 0.0 0.0 0.00 0.00 0.00 73 1013.0
20260906095049 80 333 0.0 0.0 0.00 0.00 0.00 73 1012.9
20260906094547 80 350 0.0 0.0 0.00 0.00 0.00 73 1012.9
20260906094044 80 19 0.0 0.0 0.00 0.00 0.00 73 1013.1
20260906093539 80 335 0.0 0.0 0.00 0.00 0.00 73 1012.5
20260906093034 80 341 0.0 0.0 0.00 0.00 0.00 73 1012.7
20260906092529 80 349 0.0 0.0 0.00 0.00 0.00 73 1012.7
20260906092024 80 335 0.0 0.0 0.00 0.00 0.00 72 1012.8
20260906091520 80 359 0.0 0.9 0.00 0.00 0.00 72 1013.0
20260906091016 80 326 0.0 0.0 0.00 0.00 0.00 72 1012.7
20260906090516 81 352 0.0 0.0 0.00 0.00 0.00 72 1012.7
20260906090011 81 348 0.0 0.0 0.00 0.00 0.00 72 1012.7
20260906085509 81 347 0.0 0.0 0.00 0.00 0.00 72 1012.4
20260906085004 81 343 0.0 0.0 0.00 0.00 0.00 72 1012.9
20260906084459 81 337 0.0 0.0 0.00 0.00 0.00 72 1012.4
20260906083957 81 349 0.0 0.0 0.00 0.00 0.00 71 1012.4
20260906083454 81 348 0.0 0.0 0.00 0.00 0.00 71 1012.5
20260906082952 81 349 0.0 0.0 0.00 0.00 0.00 71 1012.5
20260906082448 81 336 0.0 0.0 0.00 0.00 0.00 72 1012.3
20260906081943 81 347 0.0 0.0 0.00 0.00 0.00 71 1012.5
20260906081438 81 346 0.0 0.0 0.00 0.00 0.00 71 1012.3
20260906080934 81 336 0.0 0.0 0.00 0.00 0.00 71 1012.8
20260906080431 81 343 0.0 0.0 0.00 0.00 0.00 71 1012.4
20260906075931 82 348 0.0 0.0 0.00 0.00 0.00 70 1012.1
20260906075426 81 347 0.0 0.0 0.00 0.00 0.00 71 1012.2
20260906074920 81 352 0.0 0.0 0.00 0.00 0.00 71 1012.5
20260906074415 82 347 0.0 0.0 0.00 0.00 0.00 71 1012.4
20260906073914 82 359 0.0 0.0 0.00 0.00 0.00 70 1012.3
20260906073409 82 344 0.0 0.0 0.00 0.00 0.00 70 1012.4
20260906072905 82 347 0.0 0.0 0.00 0.00 0.00 70 1012.4
20260906072401 82 343 0.0 0.0 0.00 0.00 0.00 70 1012.4
20260906071856 82 348 0.0 0.0 0.00 0.00 0.00 69 1012.1
20260906071351 82 350 0.0 0.0 0.00 0.00 0.00 69 1012.2
20260906070847 82 348 0.0 0.0 0.00 0.00 0.00 69 1012.3
20260906070343 83 351 0.0 0.0 0.00 0.00 0.00 69 1012.4
20260906065838 83 352 0.0 0.0 0.00 0.00 0.00 68 1012.3
20260906065333 83 355 0.0 0.0 0.00 0.00 0.00 68 1012.8
20260906064829 83 347 0.0 0.0 0.00 0.00 0.00 68 1012.4
20260906064324 83 341 0.0 0.0 0.00 0.00 0.00 68 1012.5
20260906063819 83 345 0.0 0.0 0.00 0.00 0.00 69 1012.4
20260906063315 83 350 0.0 0.0 0.00 0.00 0.00 69 1012.7
20260906062810 83 344 0.0 0.0 0.00 0.00 0.00 69 1012.7
20260906062309 83 349 0.0 0.0 0.00 0.00 0.00 69 1012.7
20260906061804 83 345 0.0 0.0 0.00 0.00 0.00 68 1012.8
20260906061301 83 355 0.0 0.0 0.00 0.00 0.00 68 1012.7
20260906060755 83 348 0.0 0.0 0.00 0.00 0.00 68 1012.7
20260906060253 83 350 0.0 0.0 0.00 0.00 0.00 68 1012.5
20260906055749 84 339 0.0 0.0 0.00 0.00 0.00 68 1012.7
20260906055244 84 336 0.0 0.0 0.00 0.00 0.00 68 1012.8
20260906054739 84 331 0.0 0.0 0.00 0.00 0.00 68 1012.8
20260906054234 84 358 0.0 0.0 0.00 0.00 0.00 68 1013.1
20260906053731 84 348 0.0 0.0 0.00 0.00 0.00 67 1013.0
20260906053226 84 346 0.0 0.0 0.00 0.00 0.00 67 1013.0
20260906052721 84 355 0.0 0.0 0.00 0.00 0.00 67 1013.0
20260906052217 84 341 0.0 0.0 0.00 0.00 0.00 68 1012.9
20260906051714 84 343 0.0 0.0 0.00 0.00 0.00 68 1013.1
20260906051213 84 345 0.0 0.0 0.00 0.00 0.00 68 1012.8
20260906050709 84 353 0.0 0.0 0.00 0.00 0.00 68 1013.1
20260906050204 84 351 0.0 0.0 0.00 0.00 0.00 68 1013.1
20260906045702 84 341 0.0 0.9 0.00 0.00 0.00 67 1013.1
20260906045157 85 336 0.0 0.0 0.00 0.00 0.00 67 1012.9
20260906044653 85 0 0.0 0.0 0.00 0.00 0.00 67 1012.9
20260906044148 85 350 0.0 0.0 0.00 0.00 0.00 67 1013.1
20260906043644 85 359 0.0 0.0 0.00 0.00 0.00 67 1013.1
20260906043140 85 4 0.0 0.0 0.00 0.00 0.00 67 1013.0
20260906042639 85 354 0.0 0.0 0.00 0.00 0.00 68 1012.7
20260906042133 85 347 0.0 0.0 0.00 0.00 0.00 68 1012.9
20260906041629 85 342 0.0 0.0 0.00 0.00 0.00 68 1012.7
20260906041124 85 348 0.0 0.0 0.00 0.00 0.00 68 1012.5
20260906040620 85 359 0.0 0.0 0.00 0.00 0.00 68 1012.7
20260906040115 85 341 0.0 0.0 0.00 0.00 0.00 68 1012.9
20260906035610 86 352 0.0 0.0 0.00 0.00 0.00 67 1012.7
20260906035105 86 343 0.0 0.0 0.00 0.00 0.00 67 1012.5
20260906034600 86 342 0.0 0.0 0.00 0.00 0.00 66 1012.3
20260906034055 86 356 0.0 0.0 0.00 0.00 0.00 66 1012.2
20260906033550 86 353 0.0 0.0 0.00 0.00 0.00 66 1012.3
20260906033045 86 359 0.0 0.0 0.00 0.00 0.00 66 1012.4
20260906032542 86 342 0.0 0.9 0.00 0.00 0.00 65 1012.2
20260906032036 86 332 0.0 0.0 0.00 0.00 0.00 66 1012.3
20260906031532 86 345 0.0 0.0 0.00 0.00 0.00 66 1012.2
20260906031022 87 353 0.0 0.0 0.00 0.00 0.00 65 1012.3
20260906030521 87 339 0.0 0.0 0.00 0.00 0.00 65 1012.4
20260906030020 87 351 0.0 0.0 0.00 0.00 0.00 64 1012.3
20260906025520 87 343 0.0 0.0 0.00 0.00 0.00 64 1012.0
20260906025018 87 349 0.0 0.0 0.00 0.00 0.00 65 1011.9
20260906024513 87 352 0.0 0.0 0.00 0.00 0.00 64 1012.0
20260906024008 87 349 0.0 0.0 0.00 0.00 0.00 64 1011.8
20260906023504 87 345 0.0 0.0 0.00 0.00 0.00 64 1011.9
20260906022959 87 351 0.0 0.0 0.00 0.00 0.00 64 1011.6
20260906022454 88 357 0.0 0.0 0.00 0.00 0.00 63 1011.5
20260906021949 88 1 0.0 0.9 0.00 0.00 0.00 63 1011.6
20260906021444 88 2 0.0 0.0 0.00 0.00 0.00 62 1011.4
20260906020939 89 343 0.0 0.0 0.00 0.00 0.00 62 1011.5
20260906020433 89 341 0.0 0.0 0.00 0.00 0.00 61 1011.3
20260906015927 89 337 0.0 0.0 0.00 0.00 0.00 61 1011.3
20260906015427 89 347 0.0 0.0 0.00 0.00 0.00 61 1011.3
20260906014927 89 346 0.0 0.0 0.00 0.00 0.00 61 1011.3
20260906014426 89 347 0.0 0.0 0.00 0.00 0.00 60 1011.0
20260906013923 89 334 0.0 0.0 0.00 0.00 0.00 60 1010.9
20260906013418 90 349 0.0 0.0 0.00 0.00 0.00 60 1011.0
20260906012914 90 356 0.0 0.0 0.00 0.00 0.00 59 1011.0
20260906012414 90 341 0.0 0.0 0.00 0.00 0.00 59 1010.9
20260906011913 90 344 0.0 0.0 0.00 0.00 0.00 59 1010.8
20260906011408 90 347 0.0 0.0 0.00 0.00 0.00 58 1011.1
20260906010858 91 342 0.0 0.0 0.00 0.00 0.00 58 1011.1
20260906010354 91 347 0.0 0.0 0.00 0.00 0.00 58 1010.9
20260906005850 91 1 0.9 1.7 0.00 0.00 0.00 57 1010.9
20260906005349 91 350 0.0 0.0 0.00 0.00 0.00 57 1010.7
20260906004848 91 331 0.0 0.0 0.00 0.00 0.00 57 1010.9
20260906004347 91 358 0.0 0.0 0.00 0.00 0.00 57 1010.9
20260906003843 92 344 0.0 0.0 0.00 0.00 0.00 57 1010.7
20260906003338 92 340 0.0 0.0 0.00 0.00 0.00 56 1010.6
20260906002834 92 352 0.0 0.0 0.00 0.00 0.00 56 1010.6
20260906002333 92 359 0.0 0.9 0.00 0.00 0.00 55 1010.8
20260906001829 93 351 0.0 0.0 0.00 0.00 0.00 55 1010.8
20260906001324 93 339 0.0 0.0 0.00 0.00 0.00 55 1010.8
20260906000819 93 45 0.9 0.9 0.00 0.00 0.00 54 1010.7
20260906000314 93 337 0.0 0.0 0.00 0.00 0.00 54 1010.6
20260905235808 93 14 0.0 0.0 0.00 0.00 0.00 54 1010.5
20260905235306 94 337 0.0 0.0 0.00 0.00 0.00 54 1010.6
20260905234758 94 357 0.9 0.9 0.00 0.00 0.00 52 1010.8
20260905234253 94 352 0.0 0.0 0.00 0.00 0.00 52 1010.7
20260905233748 95 315 0.0 0.0 0.00 0.00 0.00 52 1010.7
20260905233242 95 7 0.0 0.0 0.00 0.00 0.00 51 1010.6
20260905232742 95 214 1.7 1.7 0.00 0.00 0.00 50 1010.7
20260905232238 95 15 0.0 0.0 0.00 0.00 0.00 51 1010.5
20260905231734 95 1 0.9 0.9 0.00 0.00 0.00 50 1010.4
20260905231229 96 336 0.0 0.9 0.00 0.00 0.00 50 1010.7
20260905230725 96 352 0.0 0.0 0.00 0.00 0.00 50 1010.4
20260905230222 96 14 0.0 0.9 0.00 0.00 0.00 49 1010.5
20260905225722 96 353 0.9 0.9 0.00 0.00 0.00 49 1010.6
20260905225218 96 242 1.7 1.7 0.00 0.00 0.00 47 1010.5
20260905224716 97 307 0.9 0.9 0.00 0.00 0.00 45 1010.5
20260905224212 97 355 0.9 0.9 0.00 0.00 0.00 40 1010.5
20260905223708 96 357 0.0 0.0 0.00 0.00 0.00 42 1010.5
20260905223205 96 351 0.0 0.9 0.00 0.00 0.00 42 1010.6
20260905222700 96 352 0.0 0.0 0.00 0.00 0.00 42 1010.7
20260905222200 97 9 0.0 0.0 0.00 0.00 0.00 40 1010.8
20260905221655 98 231 1.7 1.7 0.00 0.00 0.00 39 1010.8
20260905221152 98 165 0.9 1.7 0.00 0.00 0.00 39 1010.7
20260905220647 98 70 0.9 1.7 0.00 0.00 0.00 39 1010.7
20260905220144 99 311 0.0 0.9 0.00 0.00 0.00 39 1010.8
20260905215643 98 346 0.9 0.9 0.00 0.00 0.00 40 1010.9
20260905215139 98 248 0.9 0.9 0.00 0.00 0.00 39 1010.9
20260905214634 99 344 0.0 0.0 0.00 0.00 0.00 40 1010.9
20260905214129 99 245 0.0 0.9 0.00 0.00 0.00 38 1011.0
20260905213625 99 351 0.0 0.0 0.00 0.00 0.00 39 1011.0
20260905213120 100 340 0.9 0.9 0.00 0.00 0.00 39 1011.3
20260905212615 100 219 1.7 1.7 0.00 0.00 0.00 39 1011.1
20260905212114 99 232 0.9 0.9 0.00 0.00 0.00 39 1011.2
20260905211610 99 205 1.7 1.7 0.00 0.00 0.00 38 1011.1
20260905211105 100 6 0.9 0.9 0.00 0.00 0.00 38 1011.1
20260905210601 100 341 0.0 0.0 0.00 0.00 0.00 38 1011.3
20260905210056 100 314 0.0 0.9 0.00 0.00 0.00 35 1011.2
20260905205554 100 325 0.9 0.9 0.00 0.00 0.00 36 1011.5
20260905205049 100 316 1.7 1.7 0.00 0.00 0.00 37 1011.4
20260905204544 100 14 0.0 0.0 0.00 0.00 0.00 37 1011.4
20260905204039 101 245 0.9 0.9 0.00 0.00 0.00 38 1011.6
20260905203538 100 332 0.0 0.9 0.00 0.00 0.00 39 1011.7
20260905203034 100 294 0.9 0.9 0.00 0.00 0.00 40 1011.8
20260905202529 99 201 0.9 1.7 0.00 0.00 0.00 39 1012.0
20260905202025 98 322 0.9 1.7 0.00 0.00 0.00 40 1012.0
20260905201521 101 348 2.6 2.6 0.00 0.00 0.00 37 1012.0
20260905201019 101 287 0.9 0.9 0.00 0.00 0.00 37 1012.2
20260905200515 101 21 0.9 0.9 0.00 0.00 0.00 37 1012.2
20260905200015 102 326 1.7 1.7 0.00 0.00 0.00 37 1012.2
20260905195509 101 12 0.9 0.9 0.00 0.00 0.00 39 1012.2
20260905195004 100 334 0.9 1.7 0.00 0.00 0.00 39 1012.3
20260905194503 100 287 0.0 0.9 0.00 0.00 0.00 42 1012.3
20260905193958 100 236 1.7 1.7 0.00 0.00 0.00 40 1012.4
20260905193453 100 359 0.9 1.7 0.00 0.00 0.00 42 1012.4
20260905192948 100 310 0.9 0.9 0.00 0.00 0.00 41 1012.5
20260905192443 100 275 0.9 1.7 0.00 0.00 0.00 41 1012.4
20260905191938 100 6 0.9 0.9 0.00 0.00 0.00 43 1012.3
20260905191437 99 27 1.7 1.7 0.00 0.00 0.00 43 1012.2
20260905190932 99 1 1.7 1.7 0.00 0.00 0.00 43 1012.5
20260905190429 98 340 0.9 0.9 0.00 0.00 0.00 43 1012.7
20260905185928 98 331 0.0 0.0 0.00 0.00 0.00 43 1012.9
20260905185424 100 327 0.9 1.7 0.00 0.00 0.00 42 1012.9
20260905184922 99 267 1.7 1.7 0.00 0.00 0.00 43 1012.9
20260905184417 98 146 1.7 1.7 0.00 0.00 0.00 44 1013.0
20260905183916 96 340 0.0 0.0 0.00 0.00 0.00 46 1013.0
20260905183411 97 73 1.7 1.7 0.00 0.00 0.00 46 1012.9
20260905182906 97 326 0.0 0.9 0.00 0.00 0.00 45 1013.2
20260905182404 99 247 1.7 1.7 0.00 0.00 0.00 43 1013.1
20260905181900 100 330 0.0 0.0 0.00 0.00 0.00 42 1013.4
20260905181355 100 325 1.7 1.7 0.00 0.00 0.00 42 1013.4
20260905180854 99 236 0.9 0.9 0.00 0.00 0.00 44 1013.5
20260905180349 99 219 1.7 1.7 0.00 0.00 0.00 44 1013.2
20260905175843 100 343 0.0 0.9 0.00 0.00 0.00 45 1013.6
20260905175338 100 290 0.9 0.9 0.00 0.00 0.00 44 1013.6